Kuchera_Ratio
0.0 0.0 0.0 0.0 0.0 0.0 0.0 0.0 0.0 0.0 0.0 0.0 0.0 0.0 0.0 0.0 0.0 0.0 0.0 0.0 0.0 0.0 0.0 0.0 0.0 0.0 0.0 0.0 0.0 0.0 0.0 0.0 0.0 0.0 0.0 0.0 0.0 0.0 0.0 0.0 0.0 0.0 0.0
0.0 0.0 0.0 0.0 0.0 0.0 0.0 0.0 0.0 0.0 0.0 0.0 0.0 0.0 0.0 0.0 0.0 0.0 0.0 0.0 0.0 0.0 0.0 0.0 0.0 0.0 0.0 0.0 0.0 0.0 0.0 0.0 0.0 0.0 0.0 0.0 0.0 0.0 0.0 0.0 0.0 0.0 0.0
0.0 0.0 0.0 0.0 0.0 0.0 0.0 0.0 0.0 0.0 0.0 0.0 0.0 0.0 0.0 0.0 0.0 0.0 0.0 0.0 0.0 0.0 0.0 0.0 0.0 0.0 0.0 0.0 0.0 0.0 0.0 0.0 0.0 0.0 0.0 0.0 0.0 0.0 0.0 0.0 0.0 0.0 0.0
0.0 0.0 0.0 0.0 0.0 0.0 0.0 0.0 0.0 0.0 0.0 0.0 0.0 0.0 0.0 0.0 0.0 0.0 0.0 0.0 0.0 0.0 0.0 0.0 0.0 0.0 0.0 0.0 0.0 0.0 0.0 0.0 0.0 0.0 0.0 0.0 0.0 0.0 0.0 0.0 0.0 0.0 0.0
0.0 0.0 0.0 0.0 0.0 0.0 0.0 0.0 0.0 0.0 0.0 0.0 0.0 0.0 0.0 0.0 0.0 0.0 0.0 0.0 0.0 0.0 0.0 0.0 0.0 0.0 0.0 0.0 0.0 0.0 0.0 0.0 0.0 0.0 0.0 0.7 1.5 1.9 2.6 0.3 0.0 1.0 0.8
0.0 0.0 0.0 0.0 0.0 0.0 0.0 0.0 0.0 0.0 0.0 0.0 0.0 0.0 0.0 0.0 0.0 0.0 0.0 0.0 0.0 0.0 0.0 0.0 0.0 0.0 0.0 0.0 0.0 0.0 0.0 0.0 0.0 0.0 0.8 2.2 2.5 2.7 2.1 1.9 3.5 3.8 5.0
0.0 0.0 0.0 0.0 0.0 0.0 0.0 0.0 0.0 0.0 0.0 0.0 0.0 0.0 0.0 0.0 0.0 0.0 0.0 0.0 0.0 0.0 0.0 0.0 0.0 0.0 0.0 0.0 0.0 0.0 0.0 0.0 0.0 0.0 1.9 2.9 3.8 2.7 2.9 3.7 3.9 3.3 5.5
0.0 0.0 0.0 0.0 0.0 0.0 0.0 0.0 0.0 0.0 0.0 0.0 0.0 0.0 0.0 0.0 0.0 0.0 0.0 0.0 0.0 0.0 0.0 0.0 0.0 0.0 0.0 0.0 0.0 0.0 0.0 0.0 0.0 0.8 0.9 1.3 0.9 1.1 1.1 1.3 2.9 5.7 4.9
0.0 0.0 0.0 0.0 0.0 0.0 0.0 0.0 0.0 0.0 0.0 0.0 0.0 0.0 0.0 0.0 0.0 0.0 0.0 0.0 0.0 0.0 0.0 0.1 0.0 0.0 0.0 0.0 0.0 0.4 0.8 1.5 1.1 0.0 0.1 0.5 0.5 1.2 1.5 4.5 7.1 6.3 8.7
0.0 0.0 0.0 0.0 0.0 0.0 0.0 0.0 0.0 0.0 0.0 0.0 0.0 0.0 0.0 0.0 0.0 0.0 0.0 0.0 0.0 0.0 0.5 0.3 0.1 0.5 0.0 0.2 1.0 1.6 2.3 1.2 2.7 3.6 4.1 3.1 1.4 1.9 3.1 1.7 4.3 6.3 8.7
0.0 0.0 0.0 0.0 0.0 0.0 0.0 0.0 0.0 0.0 0.0 0.0 0.0 0.0 0.0 0.0 0.0 0.0 0.0 0.0 0.0 1.7 4.2 3.2 1.5 2.9 1.8 1.6 1.5 1.9 2.4 2.1 3.6 5.3 6.1 6.5 6.1 5.1 5.1 3.8 2.0 3.5 6.5
0.0 0.0 0.0 0.0 0.0 0.0 0.0 0.0 0.0 0.0 0.0 0.0 0.0 0.0 0.0 0.0 0.0 0.0 0.0 0.7 0.4 4.4 5.3 5.7 4.7 3.1 2.7 2.0 2.7 2.2 2.7 3.2 5.1 7.3 7.5 7.9 7.5 7.5 5.9 5.7 4.1 4.2 3.4
0.0 0.0 0.0 0.0 0.0 0.0 0.0 0.0 0.0 0.0 0.0 0.0 0.0 0.0 0.0 0.0 0.0 0.1 1.5 2.1 2.4 5.2 6.3 5.5 4.3 3.9 3.5 4.0 3.5 3.5 3.9 5.0 6.3 7.9 8.1 8.1 7.3 6.3 5.1 5.7 5.1 4.9 5.5
0.0 0.0 0.0 0.0 0.0 0.0 0.0 0.0 0.0 0.0 0.0 0.0 0.0 0.0 0.0 0.5 1.2 1.7 2.6 3.3 5.3 6.7 7.1 6.3 5.9 5.6 5.2 5.0 5.1 4.8 5.0 6.0 6.9 7.3 7.7 7.1 6.7 5.9 6.7 6.1 7.3 7.3 8.1
0.0 0.0 0.0 0.0 0.0 0.0 0.0 0.0 0.0 0.0 0.0 0.0 0.0 0.0 0.6 2.0 1.4 1.3 2.2 5.3 7.7 7.7 7.5 7.7 7.6 7.7 7.5 6.9 7.3 6.9 7.3 7.7 7.7 7.5 7.7 7.5 6.9 6.7 6.5 5.7 6.7 7.3 8.9
0.0 0.0 0.0 0.0 0.0 0.0 0.0 0.0 0.0 0.0 0.0 0.0 0.0 0.1 0.1 0.5 0.3 2.3 2.5 3.3 4.3 5.1 8.3 8.5 8.3 7.7 8.5 8.8 9.2 9.2 8.9 8.5 7.7 7.1 7.3 6.9 6.9 7.3 7.5 6.7 6.5 7.5 9.1
0.0 0.0 1.0 0.9 1.8 1.4 2.0 1.8 2.3 0.7 1.2 1.8 1.2 1.7 2.3 1.2 3.1 2.7 3.3 4.5 4.7 6.9 9.5 8.1 7.9 7.7 7.7 8.5 8.7 8.9 9.3 8.3 8.3 7.3 7.1 6.9 6.7 7.3 7.9 8.1 8.1 9.1 9.5
3.3 5.1 4.7 5.3 5.7 5.6 5.3 5.6 5.7 5.4 5.5 4.3 2.8 3.9 4.1 4.1 3.9 3.7 4.5 5.5 9.1 8.3 9.3 8.5 7.9 7.7 8.0 8.5 8.5 8.7 8.9 8.5 8.3 7.5 7.3 7.1 6.9 7.3 7.9 8.1 8.5 9.1 9.3
5.3 7.7 6.3 6.1 6.3 6.5 7.3 7.5 7.1 6.8 7.0 6.6 5.6 5.5 6.3 4.9 5.3 4.5 5.3 8.9 9.9 9.9 9.3 9.1 7.9 7.3 7.5 7.9 7.9 7.9 7.7 7.9 7.7 7.7 7.5 7.3 7.1 7.1 7.7 7.7 8.1 8.3 9.9
6.1 8.2 8.1 7.9 7.9 7.9 7.9 8.0 7.7 7.5 7.1 7.1 7.2 6.4 7.2 8.1 8.5 7.9 8.1 8.5 9.3 9.3 8.6 8.2 7.4 7.3 7.9 7.6 7.5 7.5 7.7 8.3 8.1 7.9 7.7 7.3 7.1 7.1 7.3 7.5 7.5 8.9 9.7
7.3 7.3 7.7 7.5 7.7 7.9 7.7 8.0 7.9 8.0 7.8 7.9 7.5 6.7 6.8 7.5 8.1 7.9 8.5 8.5 8.5 8.5 7.9 7.5 7.2 6.8 7.1 7.7 8.1 8.1 8.1 7.7 7.9 7.7 7.9 7.7 7.3 7.7 7.5 7.1 6.9 7.1 8.3
6.7 6.2 5.9 6.4 6.4 7.0 8.2 7.5 7.9 8.1 8.1 8.1 7.5 6.5 7.1 7.5 7.9 7.9 7.9 7.9 7.5 7.3 7.3 6.9 7.4 7.2 7.3 7.8 7.9 7.5 7.7 7.7 7.5 7.5 7.7 7.7 7.7 7.5 7.5 7.7 7.7 7.3 7.7
7.6 7.4 6.0 5.4 4.9 5.9 7.6 8.5 8.5 8.3 8.1 7.7 7.5 7.5 7.7 8.1 8.1 8.0 7.5 7.1 7.1 7.1 7.7 7.4 7.2 7.4 7.9 7.7 7.0 7.1 7.5 7.9 7.3 6.9 7.5 7.9 8.1 7.7 7.5 7.7 7.7 7.9 7.9
8.7 8.5 8.9 8.1 7.8 8.4 10.2 10.5 10.5 10.4 9.9 8.7 7.3 7.3 7.9 8.1 7.7 7.7 7.5 7.5 7.3 7.3 7.2 7.3 7.3 7.5 7.7 7.3 7.2 7.0 6.7 7.1 7.4 7.1 6.9 7.7 8.1 8.5 7.7 7.9 7.7 7.5 7.3
11.3 12.4 12.2 12.2 12.2 11.8 12.1 12.1 12.4 10.8 9.9 8.3 7.5 7.7 8.0 7.7 8.5 8.7 8.5 7.9 8.1 7.7 8.3 7.7 7.7 7.3 6.7 6.7 6.8 7.0 6.8 6.7 7.3 7.7 7.0 8.1 8.1 8.3 8.1 7.7 7.7 7.7 7.3
14.6 13.1 13.2 13.7 12.3 12.8 13.0 13.1 12.4 11.3 11.3 9.9 7.7 7.5 7.7 9.9 10.9 11.1 9.9 10.5 10.7 11.5 12.0 11.6 11.3 10.0 8.1 7.3 6.7 6.5 6.6 6.8 7.1 7.7 7.3 8.1 8.7 8.5 8.1 8.1 8.1 7.9 7.9